Rbgn^[z[y[W
メイン
   新天体発見情報
     Comet P/2024 K1 (PANSTARRS)
投稿するにはまず登録を

フラット表示 前のトピック | 次のトピック
投稿者 スレッド
佐藤裕久
投稿日時: 2024-6-17 21:16
モデレータ
登録日: 2005-6-12
居住地: 日本
投稿: 2689
オンライン
Comet P/2024 K1 (PANSTARRS)

R. Weryk (西オンタリオ大学,物理および天文学科)の通報によると、5月30日、HaleakalaにあるPan-STARRS1 
1.8-m Ritchey-Chretien反射望遠鏡で得た画像から別の彗星を発見した。
1".3のシーイングで得てた4枚の45-秒のw-バンドサーベイ画像では、1".6(半値全幅:FWHM)の集光したコマが
見えるが尾はない。
Werykの報告によると、5月31.5日UT、3.6-m Canada-France-Hawaii望遠鏡 (CFHT)で、6枚の60-秒gri-バンド
の質の良くないフォローアップ画像が得られ、恒星に比べて彗星の像がわずかに大きく(1".8 FWHM)なっている。 
6月1.4日、3枚の90-秒のCFHTHT画像が得られ、この天体は間違いなく彗星であることがわかった。
1".0シーイングでの最良の画像は、1".4(FWHM)の非常に集光した頭部が見え、p.a.240-340°にわたり1"の広く
短い尾の形跡がある。
小惑星センターのPCCP webpageに公表後、佐藤英貴氏(東京都文京区, 6月6.6日UT、120-秒露出12枚のスタック, 
0.51-m f/6.8 アストログラフ, Siding Spring, NSW, オーストラリア, 遠隔操作: 中程度に集光した 8"のコマ
が見えるが尾はなかった。4".3の円形範囲で測定した光度は19.8等であった)らCCD位置観測者によって彗星状と
観測された。

彗星機能の報告は次のとおり、

OC   Date        Reporter           Coma    Tail    PA          Exposures
T14  2024-05-31  R. Weryk           0".6                           6x60s
T14  2024-06-01  R. Weryk           0".4      1"    240-340        3x90s
Q62  2024-06-06  H. Sato            8"                            12x120s

発見位置は次のとおり、

     2024 UT             R.A. (2000) Decl.       Mag.
     May  30.41847   16 20 39.04   -21 39 36.3   20.7
          30.42560   16 20 38.78   -21 39 35.3   21.0
          30.43272   16 20 38.55   -21 39 34.4   21.1
          30.44033   16 20 38.27   -21 39 33.7   21.3

MPCの楕円軌道要素、位置推算表は次のとおり、

Orbital elements:
    P/2024 K1 (PANSTARRS)                                                       
Epoch 2024 Mar. 31.0 TT = JDT 2460400.5                                         
T 2024 May  9.20906 TT                                  Rudenko                 
q   3.4560657            (2000.0)            P               Q                  
n   0.05500173     Peri.  351.97836     -0.44348412     +0.89579369             
a   6.8478119      Node   251.69114     -0.82058316     -0.41908524             
e   0.4953036      Incl.    1.78601     -0.36050674     -0.14805821             
P  17.9                                                                         
From 28 observations 2024 May 30-June 10, mean residual 0".2.                   
                                                                                
Ephemeris:
Date    TT    R. A. (2000) Decl.     Delta      r    Elong.  Phase   m1
2024 05 12    16 30 28.9 -22 10 31   2.4809  3.4561   162.1     5.2  20.9
...
2024 05 27    16 22 33.4 -21 45 44   2.4451  3.4580   178.4     0.5  20.8
...
2024 06 04    16 18 07.6 -21 31 12   2.4512  3.4602   172.9     2.1  20.8
...
2024 06 10    16 14 58.2 -21 20 24   2.4673  3.4623   166.4     4.0  20.9
2024 06 11    16 14 28.2 -21 18 39   2.4709  3.4627   165.3     4.3  20.9
2024 06 12    16 13 58.6 -21 16 54   2.4748  3.4631   164.2     4.6  20.9
...
2024 06 18    16 11 14.4 -21 06 55   2.5036  3.4658   157.8     6.3  20.9
...
2024 06 26    16 08 17.3 -20 55 18   2.5557  3.4700   149.5     8.6  20.9
...
2024 07 11    16 05 27.7 -20 40 57   2.6912  3.4801   134.5    12.0  21.1

(MPEC 2024-L114、CBET 5403)

フラット表示 前のトピック | 次のトピック

題名 投稿者 日時
 » Comet P/2024 K1 (PANSTARRS) 佐藤裕久 2024-6-17 21:16

投稿するにはまず登録を
 
© 1999 Tsutomu Seki.